Skip Page Navigation
NASA JPL Caltech
NASA Logo - Jet Propulsion Laboratory + View the NASA Portal
+ Center for Near-Earth Object Studies
JPL Home Earth Solar System Stars & Galaxies Technology
JPL Solar System Dynamics
BODIES ORBITS EPHEMERIDES TOOLS PHYSICAL DATA DISCOVERY FAQ SITE MAP
JPL Small-Body Database Browser
Search: [ help ]  
152184 (2005 QV11)
Classification: Main-belt Asteroid          SPK-ID: 2152184
Ephemeris | Orbit Diagram | Orbital Elements | Mission Design | Physical Parameters | Discovery Circumstances | Close-Approach Data ]

[ show orbit diagram ]
Orbital Elements at Epoch 2459200.5 (2020-Dec-17.0) TDB
Reference: JPL 14 (heliocentric ecliptic J2000)
 Element Value Uncertainty (1-sigma)   Units 
e .218065861953226 5.8531e-08  
a 2.307079570651415 1.0127e-08 au
q 1.803984275482636 1.3545e-07 au
i 7.159142036123985 7.3639e-06 deg
node 341.8100324800801 3.2697e-05 deg
peri 38.61684484074347 3.655e-05 deg
M 97.97031163084279 1.6941e-05 deg
tp 2458852.175296716281
(2020-Jan-03.67529672)
6.0135e-05 TDB
period 1279.947885178123
3.50
8.4274e-06
2.307e-08
d
yr
n .2812614514769097 1.8519e-09 deg/d
Q 2.810174865820195 1.2335e-08 au
  Orbit Determination Parameters
   # obs. used (total)      286  
   data-arc span      8237 days (22.55 yr)  
   first obs. used      1998-08-17  
   last obs. used      2021-03-06  
   planetary ephem.      DE441  
   SB-pert. ephem.      SB441-N16  
   condition code      0  
   norm. resid. RMS      .49223  
   source      ORB  
   producer      Otto Matic  
   solution date      2021-Apr-13 19:26:03  

Additional Information
 Earth MOID = .810649 au 
 Jupiter MOID = 2.6802 au 
 T_jup = 3.545 
[ show covariance matrix ]

Ephemeris | Orbit Diagram | Orbital Elements | Mission Design | Physical Parameters | Discovery Circumstances | Close-Approach Data ]

Physical Parameter Table
Parameter Symbol Value Units Sigma Reference Notes
absolute magnitude H 16.9   n/a MPO532805  

152184 (2005 QV11)          Discovered 2005-Aug-22 by NEAT at Palomar
Reference: 20070303/Numbers.arcLast Updated: 2007-03-07

[ show close-approach data ]
Alternate Designations
 2005 QV11 = 2003 AE7 
Ephemeris | Orbit Diagram | Orbital Elements | Mission Design | Physical Parameters | Discovery Circumstances | Close-Approach Data ]
ABOUT SSD CREDITS/AWARDS PRIVACY/COPYRIGHT GLOSSARY LINKS
FirstGov 2021-Apr-23 15:51 UT
(server date/time)  
NASA Home Page
Site Manager:   Ryan S. Park
Webmaster  Alan B. Chamberlin